{"data":{"norad_id":50471,"intl_designator":"2021-132C","name":"ONEWEB-0391","alt_names":[],"object_type":"PAYLOAD","status":"ACTIVE","operator":null,"country":"UK","launch_date":"2021-12-27","launch_site_code":"TYMSC","launch_vehicle":null,"mission":null,"orbit_class":"UNKNOWN","rcs_meters":null,"size_class":null,"mass_kg":null,"dimensions":null,"purposes":["comms"],"wikipedia_slug":null,"has_3d_model":false,"image_url":null,"decayed_at":null,"tle_current":{"epoch":"2026-09-20T04:45:28.547712Z","epoch_age_seconds":51956,"freshness":"FRESH","line1":"1 50471U 21132C   26263.19824708  .00000041  00000+0  71719-4 0  9997","line2":"2 50471  87.9200 347.0122 0002182 123.6998 236.4342 13.17650023230596","mean_motion":13.17650023,"eccentricity":0.0002182,"inclination_deg":87.92,"raan_deg":347.0122,"arg_perigee_deg":123.6998,"mean_anomaly_deg":236.4342,"bstar":7.1719e-5,"rev_number":23059,"period_min":109.28546843732,"perigee_km":1192.0571638919,"apogee_km":1195.361517635,"semimajor_km":7571.8463407634,"source":"CELESTRAK","updated_at":"2026-09-20T09:00:44.676793Z"}}}